Temperature
19 19 18 18 18 17 17 17 17 17 17 17 17 17 17 16 16 16 16 16 16 16 16 16 16 16 16 16 16 16 16 16 16 15 15 15 15 15 15 15 15 15 15
19 19 18 18 18 17 17 17 17 17 17 17 17 16 16 16 16 16 16 16 16 16 16 16 16 16 16 16 16 15 15 15 15 15 15 15 15 15 15 15 15 15 15
19 19 18 18 18 18 17 17 17 17 16 16 16 16 16 16 16 16 16 16 16 15 16 16 16 15 15 15 15 15 15 15 15 15 15 15 14 14 14 14 14 14 14
19 19 18 18 18 18 17 17 17 17 16 16 16 16 16 16 16 16 15 15 15 15 15 15 15 15 15 15 15 15 15 14 14 14 14 14 14 14 14 14 14 14 14
19 19 18 18 18 17 17 17 17 16 16 16 16 16 16 16 15 15 15 15 15 15 15 15 15 15 15 14 14 14 14 14 14 14 14 14 14 14 14 14 14 14 14
18 18 18 18 17 17 17 17 16 16 16 16 16 16 15 15 15 15 15 15 15 15 15 14 14 14 14 14 14 14 14 14 14 13 13 13 13 14 14 13 13 13 13
18 18 18 17 17 17 17 16 16 16 16 15 15 15 15 15 15 15 15 15 15 15 14 14 14 14 14 14 14 14 13 13 13 13 13 13 13 13 13 13 13 13 13
18 17 17 17 17 17 16 16 16 16 16 15 15 15 15 15 15 15 15 14 14 14 14 14 14 14 14 14 14 13 13 13 13 13 13 13 13 13 13 13 13 13 13
17 17 17 16 16 16 16 16 16 16 15 15 15 15 15 15 15 14 14 14 14 14 14 14 13 13 13 13 13 13 13 13 13 13 13 13 13 13 13 13 13 13 13
17 17 17 16 16 16 16 16 15 15 15 15 15 15 15 14 14 14 14 14 14 14 14 13 13 13 13 13 13 13 13 13 13 13 13 13 13 13 13 13 13 13 13
17 17 16 16 16 16 16 15 15 15 15 15 14 14 14 14 14 14 14 14 14 14 13 13 13 13 13 13 13 13 13 13 13 13 13 13 13 13 13 13 13 13 13
16 16 16 16 16 15 15 15 15 15 14 14 14 14 14 14 14 14 14 14 13 13 13 13 13 13 13 13 13 13 12 12 12 12 12 12 13 13 13 13 13 12 12
16 16 16 16 15 15 15 15 15 14 14 14 14 14 14 14 14 13 13 13 13 13 13 13 13 12 12 12 12 12 12 12 12 12 12 12 12 12 12 12 12 12 12
16 16 15 15 15 15 15 14 14 14 14 14 14 14 13 13 13 13 13 13 13 13 13 12 12 12 12 12 12 12 12 12 12 12 12 12 12 12 12 12 12 12 12
15 15 15 15 15 15 14 14 14 14 14 14 14 13 13 13 13 13 13 13 13 13 12 12 12 12 12 12 12 12 12 12 11 11 12 12 12 12 12 12 12 12 12
15 15 15 15 15 14 14 14 14 14 14 14 14 13 13 13 13 13 13 13 12 12 12 12 12 12 12 12 12 12 12 11 11 11 11 11 12 11 11 11 11 11 11
15 15 14 14 14 14 14 14 14 14 14 13 13 13 13 13 13 13 13 13 12 12 12 12 12 12 12 12 12 12 11 11 11 11 11 11 11 11 11 11 11 11 11
15 14 14 14 14 14 14 14 14 14 13 13 13 13 13 13 13 13 12 12 12 12 12 12 12 12 12 11 11 11 11 11 11 11 11 11 11 11 11 11 11 11 11
14 14 14 14 14 14 14 14 13 13 13 13 13 13 13 13 12 12 12 12 12 12 12 12 12 12 11 11 11 11 11 11 11 11 11 11 11 11 11 11 11 11 11
14 14 14 14 14 14 13 13 13 13 13 13 13 13 13 13 12 12 12 12 12 12 12 12 12 12 11 11 11 11 11 11 11 11 11 11 11 11 11 11 11 11 11
14 14 14 13 13 13 13 13 13 13 13 13 13 13 12 12 12 12 12 12 12 12 12 12 12 11 11 11 11 11 10 10 10 10 10 10 10 10 10 11 11 11 11
14 13 13 13 13 13 13 13 13 13 13 13 13 12 12 12 12 12 12 12 12 12 12 11 11 11 11 11 11 11 10 10 10 10 10 10 10 10 10 10 10 10 10
13 13 13 13 13 13 13 13 12 12 12 12 12 12 12 12 12 12 12 12 12 12 11 11 11 11 11 11 11 10 10 10 10 10 10 10 10 10 10 10 10 10 10
13 13 13 13 13 13 12 12 12 12 12 12 12 12 12 12 12 12 11 11 11 11 11 11 11 11 11 11 10 10 10 10 10 10 10 10 10 10 10 10 10 10 10
13 13 13 13 12 12 12 12 12 12 12 12 11 11 11 11 11 11 11 11 11 11 11 11 11 11 10 10 10 10 10 10 10 9 9 9 9 9 9 9 9 9 9
13 13 12 12 12 12 12 12 12 11 11 11 11 11 11 11 11 11 11 11 11 11 11 11 10 10 10 10 10 10 10 10 9 9 9 9 9 9 9 9 9 9 9
Wind_Speed
7 6 5 5 5 5 4 4 4 4 4 4 3 3 3 3 3 2 3 2 2 2 2 2 2 2 1 1 1 1 1 2 3 2 2 2 2 2 2 3 4 4 6
7 6 5 5 4 4 4 4 4 5 4 4 3 3 3 3 2 3 3 2 2 3 3 2 2 2 1 2 1 2 2 2 3 3 2 1 2 3 2 2 2 3 4
7 6 5 4 4 4 4 4 4 4 3 3 3 3 3 3 3 3 3 2 2 3 3 3 3 2 3 2 2 2 2 2 2 3 2 2 2 2 1 1 1 1 3
7 7 6 6 5 5 4 4 3 3 2 2 3 3 4 3 3 3 3 3 3 3 3 3 3 4 4 4 3 3 2 2 2 2 2 2 2 1 1 1 1 1 2
7 6 6 5 5 4 3 3 3 2 2 2 2 2 3 3 4 4 3 3 3 3 3 3 4 4 5 4 3 3 3 2 2 2 2 2 2 1 2 2 3 2 2
7 6 5 4 4 4 4 3 3 3 3 2 2 2 2 3 4 4 3 3 3 3 3 3 3 3 3 3 3 4 5 4 4 3 3 4 4 3 3 3 3 2 3
6 6 5 5 4 4 4 3 3 3 2 2 2 2 3 4 5 5 4 3 3 3 3 3 3 2 2 1 2 2 4 6 6 5 5 5 5 5 4 4 4 4 5
5 5 5 5 5 4 3 3 4 3 3 3 3 3 3 4 5 5 5 3 3 4 3 3 3 3 2 2 2 2 3 3 4 4 6 7 6 6 6 6 5 4 3
5 5 5 5 5 4 4 4 4 3 3 4 4 4 4 5 6 6 5 3 3 4 3 3 3 3 4 3 2 2 3 4 4 5 6 7 8 8 6 3 3 2 3
5 5 5 5 5 5 5 5 3 4 4 4 4 4 5 5 6 7 6 3 3 3 3 3 4 4 5 4 3 3 4 5 3 3 3 3 4 5 7 6 6 5 3
5 4 4 4 5 5 4 4 3 4 3 3 4 4 4 4 5 6 6 4 4 3 3 2 3 4 4 5 4 4 7 5 3 3 2 3 3 3 3 5 6 6 5
3 3 4 4 4 4 4 3 3 3 3 3 3 3 3 3 3 4 5 6 5 4 4 3 4 5 5 5 4 5 5 3 2 2 2 3 3 3 4 4 6 7 8
3 3 3 3 3 3 4 4 3 3 3 3 3 3 3 3 3 4 5 5 5 4 4 5 5 5 4 4 5 5 3 2 2 2 3 4 4 4 3 2 3 3 4
3 4 3 3 3 3 3 4 4 4 4 4 4 4 4 3 3 3 3 3 3 3 3 3 4 4 3 3 3 3 2 3 4 4 4 3 2 2 2 2 2 2 1
3 4 4 4 4 3 3 3 5 5 6 7 6 5 5 5 7 8 6 4 4 3 2 0 0 1 1 2 2 2 2 2 3 3 3 2 2 2 2 2 1 1 2
2 3 4 4 3 3 3 2 3 4 6 8 8 7 6 8 8 9 9 8 7 6 3 2 2 2 3 3 3 3 2 3 3 3 3 3 3 3 3 2 1 2 2
3 3 3 3 4 3 3 3 3 4 3 4 6 7 8 8 9 10 9 8 7 7 4 4 4 4 4 4 3 3 3 3 3 3 3 3 3 3 2 2 2 2 3
4 4 4 4 4 4 5 5 4 4 4 3 4 7 8 8 9 9 8 5 3 4 4 5 5 5 4 4 3 3 3 2 2 3 3 3 3 3 3 3 3 3 3
3 3 3 3 4 4 4 4 4 4 4 4 3 4 6 6 6 6 6 4 5 5 5 5 5 5 4 4 4 3 3 3 3 3 3 3 3 3 3 4 4 4 4
4 5 4 3 3 3 4 4 4 4 5 5 5 5 3 3 3 4 5 5 5 5 5 5 5 5 5 4 4 3 3 3 3 3 3 3 3 3 4 4 4 4 4
4 4 5 3 4 4 4 4 5 5 5 5 6 6 7 5 6 6 5 5 6 6 6 5 5 4 4 4 3 4 4 3 3 3 3 3 3 3 3 3 4 4 3
4 4 4 4 4 4 4 4 4 4 5 5 4 4 7 5 4 4 5 5 5 5 5 5 5 4 4 4 5 4 4 3 3 3 3 3 3 3 2 3 3 3 3
4 4 4 4 4 4 4 3 3 3 4 4 4 3 4 5 5 5 5 5 4 4 3 4 4 3 3 4 4 4 4 4 4 4 3 3 3 3 3 3 3 3 4
4 4 4 4 4 3 3 3 3 3 3 3 4 4 4 4 4 4 4 4 3 3 3 3 3 4 4 3 3 4 4 4 4 4 4 4 4 3 3 3 4 5 5
3 3 3 3 3 3 3 3 3 3 3 3 3 3 3 2 2 2 2 2 3 2 3 3 3 3 4 4 3 4 4 4 4 4 4 3 4 4 4 4 4 4 4
2 3 3 2 3 3 2 2 2 2 2 2 2 1 2 2 1 1 1 1 1 1 1 2 2 3 3 3 3 3 3 3 4 4 3 3 4 4 3 3 5 5 5
Wind_Direction
183 181 178 181 183 181 184 194 193 199 204 206 208 207 210 213 213 210 219 213 210 235 237 211 228 221 211 229 205 185 188 169 208 258 244 244 221 215 189 192 202 206 219
178 174 176 175 179 183 196 207 204 205 210 212 210 205 212 215 213 209 216 217 213 228 236 223 240 231 221 236 216 215 215 199 188 231 262 241 230 215 196 195 201 208 217
171 170 174 177 178 187 198 203 204 209 214 214 201 205 215 218 221 218 210 223 234 235 229 221 229 211 235 244 227 219 222 222 185 190 235 241 235 217 188 226 229 213 223
170 170 178 188 192 196 197 194 199 201 201 217 220 217 214 214 217 222 222 233 243 244 239 227 224 217 225 229 230 223 217 214 203 190 217 233 242 237 164 197 237 237 240
168 175 190 195 195 196 193 195 198 204 211 215 217 230 228 219 220 218 223 227 235 251 260 251 241 230 223 222 225 218 206 210 208 210 225 232 241 218 216 211 212 236 255
172 185 193 192 192 195 199 197 198 208 217 204 206 217 240 239 224 219 218 230 228 231 248 263 264 253 240 240 239 226 204 206 216 217 225 225 232 223 219 215 207 215 263
180 186 188 187 192 201 207 206 214 218 217 217 221 211 229 240 231 225 218 214 225 232 234 242 253 253 236 244 259 263 245 235 218 210 221 231 226 220 209 218 216 214 234
185 192 192 190 201 207 203 212 222 217 217 225 233 232 236 248 239 228 224 221 235 243 236 224 219 236 236 212 230 275 274 260 240 226 223 232 230 222 213 214 219 226 255
180 191 200 198 201 204 210 221 224 215 223 229 233 230 234 251 244 237 227 222 237 248 246 234 214 215 230 211 206 246 275 280 274 253 236 235 237 234 218 195 200 201 251
196 199 199 197 198 208 217 223 219 211 223 231 241 237 232 243 246 238 221 207 225 243 259 253 222 216 229 221 212 223 250 264 271 289 283 270 259 243 224 207 205 208 222
200 193 197 202 206 208 210 215 218 215 221 234 247 250 241 240 246 241 224 207 214 227 235 247 245 233 241 244 237 226 237 243 245 244 258 272 275 261 239 217 206 205 212
183 185 199 206 210 206 199 215 213 205 215 237 251 268 265 249 228 229 216 209 206 209 230 237 239 243 251 256 257 251 247 233 218 227 250 259 262 267 259 238 220 217 220
183 196 207 210 213 204 200 209 213 209 215 231 234 249 266 264 245 230 209 203 201 206 235 244 248 254 253 250 252 258 240 207 199 221 241 250 251 254 257 259 253 236 236
201 219 217 210 217 221 217 209 208 215 219 226 226 235 244 249 238 230 219 212 214 227 252 259 254 247 245 251 264 266 230 210 208 223 236 249 261 265 260 252 250 243 250
211 218 217 215 214 225 236 232 223 224 217 215 224 220 218 234 235 213 203 209 207 213 203 236 292 300 277 282 285 267 242 220 224 231 228 238 251 257 267 265 236 215 213
218 229 222 218 219 218 225 265 275 246 238 226 220 213 223 223 216 209 209 212 209 188 167 203 225 233 238 246 260 267 249 230 228 228 228 224 229 239 256 266 236 216 227
214 225 223 218 219 220 218 222 256 284 275 252 243 229 221 221 214 208 209 209 208 183 190 217 225 232 238 237 237 234 239 239 227 220 224 230 235 237 238 246 245 237 237
216 223 223 226 223 221 221 226 227 235 253 270 272 250 239 230 220 213 206 187 209 201 213 220 225 225 226 228 228 229 236 236 231 230 226 228 230 230 239 245 241 230 230
217 228 228 229 230 228 228 227 228 231 229 238 252 259 248 239 231 221 192 193 212 223 224 224 222 221 222 225 226 227 227 230 229 230 231 228 227 226 241 247 247 241 228
223 235 237 231 234 237 233 229 228 224 224 226 228 231 220 199 218 219 208 212 214 225 227 226 223 218 219 221 220 223 226 234 235 229 234 235 229 226 234 241 241 237 229
226 232 237 240 238 237 234 233 231 225 221 227 233 226 201 206 218 221 218 218 217 222 224 224 224 219 220 220 219 223 224 229 230 231 234 237 237 235 234 231 236 234 229
220 226 227 232 239 239 239 236 232 229 226 231 241 236 216 216 220 224 222 224 225 223 219 214 218 216 212 217 220 219 222 226 231 231 235 235 238 241 240 237 239 242 234
221 228 235 238 238 243 245 237 230 228 224 227 228 224 217 222 222 221 227 232 229 223 215 204 206 220 221 219 225 221 218 227 227 219 221 233 238 238 239 239 242 243 241
220 226 233 238 237 234 235 235 227 224 224 229 230 225 223 225 228 228 229 229 219 214 204 203 207 215 217 213 206 207 212 223 223 222 212 214 222 228 231 239 244 246 246
216 221 226 226 223 226 230 232 230 221 218 225 230 230 228 225 229 234 229 224 216 210 204 201 206 206 203 203 202 204 214 218 217 221 222 217 221 223 224 233 240 247 247
211 212 212 211 211 211 208 212 220 215 216 222 226 222 211 198 195 208 186 197 197 198 198 200 205 191 185 193 205 214 219 218 222 230 227 221 217 224 223 237 246 245 248
Height
1510 1512 1513 1514 1515 1516 1516 1516 1517 1517 1517 1517 1517 1517 1517 1517 1517 1517 1517 1517 1517 1517 1517 1517 1517 1517 1517 1517 1517 1517 1517 1516 1515 1515 1516 1516 1516 1516 1516 1516 1516 1516 1517
1508 1510 1511 1512 1512 1513 1513 1514 1514 1514 1515 1515 1515 1514 1514 1514 1514 1514 1514 1515 1515 1514 1514 1514 1514 1514 1514 1514 1514 1513 1513 1513 1512 1511 1512 1513 1513 1513 1513 1513 1513 1513 1514
1506 1507 1508 1509 1509 1510 1510 1511 1511 1511 1511 1511 1511 1511 1511 1511 1511 1511 1511 1511 1511 1511 1511 1511 1511 1511 1511 1511 1510 1510 1509 1509 1509 1508 1508 1509 1509 1510 1510 1510 1511 1511 1512
1503 1504 1505 1506 1506 1507 1507 1508 1508 1508 1508 1508 1508 1508 1508 1508 1508 1508 1508 1508 1508 1508 1508 1508 1508 1508 1507 1507 1507 1506 1506 1506 1505 1505 1504 1505 1506 1507 1507 1507 1508 1508 1509
1501 1502 1502 1503 1504 1504 1505 1505 1505 1505 1505 1505 1505 1505 1505 1505 1505 1506 1506 1505 1505 1505 1505 1504 1504 1504 1504 1504 1504 1503 1503 1502 1502 1502 1501 1502 1502 1503 1503 1504 1504 1505 1505
1498 1499 1500 1501 1502 1502 1502 1502 1502 1502 1502 1502 1502 1502 1502 1502 1502 1502 1502 1502 1502 1501 1501 1501 1501 1501 1501 1501 1501 1500 1500 1499 1499 1499 1498 1498 1498 1499 1500 1501 1501 1501 1502
1496 1497 1497 1498 1499 1499 1499 1499 1499 1499 1499 1499 1499 1499 1499 1499 1499 1499 1499 1499 1498 1498 1498 1498 1498 1498 1498 1497 1497 1497 1497 1496 1496 1496 1495 1495 1495 1496 1497 1497 1498 1498 1498
1494 1494 1495 1496 1496 1497 1497 1496 1496 1496 1496 1496 1496 1496 1496 1496 1496 1496 1495 1495 1495 1495 1495 1495 1494 1494 1494 1494 1494 1493 1493 1493 1493 1492 1492 1491 1492 1493 1493 1494 1494 1494 1495
1491 1492 1492 1493 1493 1494 1494 1493 1494 1494 1493 1493 1493 1493 1493 1492 1492 1492 1492 1492 1491 1491 1491 1491 1492 1492 1492 1491 1491 1490 1490 1489 1489 1488 1488 1488 1488 1489 1490 1490 1490 1491 1490
1488 1489 1490 1490 1491 1491 1491 1491 1491 1491 1490 1490 1490 1490 1489 1489 1489 1489 1489 1488 1487 1487 1487 1488 1488 1489 1489 1488 1488 1487 1486 1486 1486 1485 1485 1485 1485 1485 1486 1486 1486 1487 1487
1485 1486 1487 1487 1488 1488 1488 1488 1488 1488 1487 1487 1487 1486 1486 1485 1485 1485 1485 1484 1484 1484 1484 1484 1485 1485 1485 1485 1485 1484 1483 1483 1482 1481 1481 1481 1481 1481 1481 1482 1482 1483 1483
1483 1483 1483 1484 1484 1485 1485 1485 1485 1485 1484 1483 1483 1482 1482 1482 1482 1482 1481 1481 1481 1480 1480 1481 1481 1481 1481 1481 1481 1480 1480 1479 1479 1478 1477 1477 1477 1477 1477 1478 1478 1479 1480
1480 1480 1480 1480 1481 1481 1481 1481 1481 1481 1480 1480 1479 1478 1478 1478 1478 1478 1478 1477 1477 1477 1477 1477 1477 1477 1477 1477 1477 1477 1476 1475 1474 1474 1474 1474 1474 1474 1474 1474 1475 1475 1475
1477 1477 1477 1477 1477 1477 1477 1477 1477 1477 1476 1476 1475 1475 1474 1474 1474 1474 1474 1474 1474 1473 1473 1473 1474 1474 1474 1474 1474 1473 1472 1472 1472 1471 1471 1471 1471 1471 1471 1471 1471 1471 1472
1474 1473 1473 1473 1473 1473 1473 1473 1473 1473 1473 1472 1472 1472 1471 1470 1470 1470 1470 1470 1470 1470 1470 1470 1471 1471 1470 1470 1470 1469 1469 1469 1469 1468 1468 1468 1468 1467 1467 1467 1468 1468 1468
1470 1470 1469 1469 1469 1469 1469 1469 1469 1469 1469 1468 1468 1468 1467 1467 1467 1467 1467 1467 1467 1467 1467 1467 1467 1467 1467 1466 1466 1466 1466 1465 1465 1465 1465 1465 1464 1464 1464 1464 1465 1465 1465
1467 1466 1466 1466 1466 1465 1466 1466 1465 1465 1465 1464 1464 1464 1464 1463 1463 1463 1463 1464 1464 1464 1463 1463 1463 1463 1463 1463 1463 1463 1462 1462 1462 1462 1462 1462 1462 1461 1461 1461 1461 1462 1462
1464 1463 1463 1462 1462 1462 1462 1462 1461 1461 1460 1459 1460 1460 1460 1460 1459 1459 1460 1460 1459 1459 1459 1459 1459 1459 1459 1459 1459 1459 1459 1459 1459 1458 1458 1458 1459 1459 1459 1458 1458 1458 1459
1460 1460 1459 1459 1459 1459 1458 1458 1457 1457 1456 1456 1456 1456 1456 1456 1456 1456 1456 1455 1455 1455 1455 1455 1455 1456 1456 1456 1456 1456 1455 1455 1455 1455 1455 1455 1455 1455 1455 1456 1456 1455 1455
1457 1456 1456 1456 1455 1454 1454 1454 1453 1453 1452 1452 1452 1452 1452 1452 1451 1451 1451 1451 1451 1451 1451 1451 1451 1451 1452 1452 1452 1452 1451 1451 1451 1451 1451 1451 1451 1451 1452 1452 1452 1452 1452
1452 1452 1452 1452 1451 1450 1450 1450 1449 1449 1448 1448 1448 1448 1448 1447 1447 1447 1447 1447 1447 1447 1448 1448 1447 1447 1447 1448 1448 1447 1447 1446 1446 1447 1447 1446 1447 1447 1448 1448 1448 1449 1449
1448 1448 1448 1447 1447 1446 1446 1446 1445 1445 1445 1445 1444 1444 1444 1444 1444 1443 1443 1443 1443 1444 1444 1444 1444 1443 1443 1444 1444 1443 1442 1442 1442 1442 1443 1443 1443 1443 1443 1444 1444 1444 1445
1444 1443 1443 1443 1442 1442 1442 1441 1441 1441 1441 1441 1441 1440 1440 1440 1440 1440 1440 1440 1440 1440 1441 1441 1441 1441 1440 1440 1440 1439 1438 1438 1438 1438 1438 1439 1439 1439 1439 1439 1439 1440 1440
1439 1439 1438 1438 1438 1438 1438 1437 1437 1437 1437 1437 1437 1437 1437 1436 1437 1437 1437 1437 1437 1437 1437 1437 1437 1437 1437 1436 1436 1436 1435 1435 1435 1434 1434 1434 1434 1435 1435 1435 1436 1436 1436
1435 1435 1435 1434 1434 1434 1434 1434 1434 1434 1434 1434 1434 1434 1433 1433 1433 1433 1433 1434 1434 1434 1433 1433 1433 1433 1433 1432 1432 1432 1432 1431 1431 1431 1430 1430 1430 1430 1431 1431 1431 1432 1432
1432 1432 1431 1431 1431 1431 1431 1431 1431 1431 1431 1431 1431 1431 1430 1430 1430 1430 1430 1431 1430 1430 1430 1430 1430 1430 1429 1429 1428 1428 1427 1427 1426 1426 1426 1425 1425 1426 1426 1426 1427 1427 1427